• In Schweiz
  • Länderverzeichnis
  • Für 7 Tage
  • Wassertemperatur
  • Satellitenkarten
  • Wetterkarte
  • Widgets
  • user-avatar
    Anmelden

    Stündliche Wetter Juigalpa

    Heute, 22 November, Mittwoch

    Zeit Temperatur Niederschläge Wind Luftdruck Luftfeuchtigkeit
    00:00 +25°C° 0,1 mm 1 m/S 751 mmHg 90%
    01:00 +25°C° 0,1 mm 1 m/S 751 mmHg 90%
    02:00 +25°C° 0,1 mm 1 m/S 750 mmHg 90%
    03:00 +25°C° 0,1 mm 1 m/S 750 mmHg 91%
    04:00 +25°C° 0,1 mm 1 m/S 751 mmHg 91%
    05:00 +25°C° 0,1 mm 1 m/S 751 mmHg 92%
    06:00 +24°C° 0,1 mm 1 m/S 751 mmHg 92%
    07:00 +26°C° 0 mm 1 m/S 751 mmHg 88%
    08:00 +27°C° 0 mm 1 m/S 752 mmHg 83%
    09:00 +29°C° 0 mm 1 m/S 752 mmHg 78%
    10:00 +29°C° 0,1 mm 1 m/S 752 mmHg 75%
    11:00 +30°C° 0,1 mm 1 m/S 751 mmHg 72%
    12:00 +31°C° 0,1 mm 2 m/S 751 mmHg 69%
    13:00 +31°C° 0,4 mm 2 m/S 750 mmHg 71%
    14:00 +31°C° 0,4 mm 2 m/S 750 mmHg 72%
    15:00 +30°C° 0,4 mm 1 m/S 749 mmHg 74%
    16:00 +29°C° 0,8 mm 1 m/S 749 mmHg 79%
    17:00 +28°C° 0,8 mm 1 m/S 750 mmHg 84%
    18:00 +27°C° 0,8 mm 1 m/S 750 mmHg 88%
    19:00 +26°C° 0,8 mm 1 m/S 751 mmHg 89%
    20:00 +26°C° 0,8 mm 1 m/S 751 mmHg 90%
    21:00 +26°C° 0,8 mm 1 m/S 752 mmHg 90%
    22:00 +25°C° 0,2 mm 1 m/S 752 mmHg 91%
    23:00 +25°C° 0,2 mm 1 m/S 751 mmHg 91%

    Morgen, 23 November, Donnerstag

    Zeit Temperatur Niederschläge Wind Luftdruck Luftfeuchtigkeit
    00:00 +25°C° 0,2 mm 1 m/S 751 mmHg 91%
    01:00 +25°C° 0,1 mm 1 m/S 751 mmHg 92%
    02:00 +24°C° 0,1 mm 1 m/S 751 mmHg 92%
    03:00 +24°C° 0,1 mm 1 m/S 750 mmHg 93%
    04:00 +24°C° 0,1 mm 1 m/S 751 mmHg 93%
    05:00 +24°C° 0,1 mm 1 m/S 751 mmHg 93%
    06:00 +24°C° 0,1 mm 1 m/S 751 mmHg 93%
    07:00 +25°C° 0 mm 2 m/S 751 mmHg 88%
    08:00 +27°C° 0 mm 2 m/S 752 mmHg 83%
    09:00 +29°C° 0 mm 3 m/S 752 mmHg 77%
    10:00 +30°C° 0,1 mm 3 m/S 752 mmHg 74%
    11:00 +30°C° 0,1 mm 4 m/S 751 mmHg 71%
    12:00 +32°C° 0,1 mm 4 m/S 750 mmHg 68%
    13:00 +32°C° 0,1 mm 4 m/S 750 mmHg 69%
    14:00 +32°C° 0,1 mm 4 m/S 749 mmHg 70%
    15:00 +32°C° 0,1 mm 4 m/S 748 mmHg 71%
    16:00 +29°C° 0,1 mm 4 m/S 749 mmHg 75%
    17:00 +28°C° 0,1 mm 3 m/S 749 mmHg 79%
    18:00 +26°C° 0,1 mm 3 m/S 750 mmHg 82%
    19:00 +26°C° 0,1 mm 3 m/S 750 mmHg 83%
    20:00 +26°C° 0,1 mm 3 m/S 751 mmHg 84%
    21:00 +25°C° 0,1 mm 3 m/S 752 mmHg 85%
    22:00 +25°C° 0 mm 3 m/S 752 mmHg 85%
    23:00 +25°C° 0 mm 3 m/S 752 mmHg 85%

    übermorgen, 24 November, Freitag

    Zeit Temperatur Niederschläge Wind Luftdruck Luftfeuchtigkeit
    00:00 +25°C° 0 mm 3 m/S 751 mmHg 86%
    01:00 +25°C° 0 mm 3 m/S 751 mmHg 87%
    02:00 +24°C° 0 mm 3 m/S 751 mmHg 87%
    03:00 +24°C° 0 mm 2 m/S 750 mmHg 88%
    04:00 +24°C° 0 mm 2 m/S 750 mmHg 89%
    05:00 +23°C° 0 mm 2 m/S 751 mmHg 89%
    06:00 +23°C° 0 mm 2 m/S 751 mmHg 90%
    07:00 +25°C° 0 mm 3 m/S 751 mmHg 85%
    08:00 +26°C° 0 mm 3 m/S 752 mmHg 80%
    09:00 +28°C° 0 mm 4 m/S 752 mmHg 75%
    10:00 +29°C° 0 mm 4 m/S 752 mmHg 72%
    11:00 +30°C° 0 mm 5 m/S 751 mmHg 69%
    12:00 +32°C° 0 mm 5 m/S 751 mmHg 66%
    13:00 +32°C° 0 mm 5 m/S 750 mmHg 67%
    14:00 +32°C° 0 mm 5 m/S 750 mmHg 68%
    15:00 +32°C° 0 mm 4 m/S 749 mmHg 69%
    16:00 +29°C° 0,1 mm 4 m/S 749 mmHg 73%
    17:00 +28°C° 0,1 mm 3 m/S 750 mmHg 77%
    18:00 +27°C° 0,1 mm 3 m/S 750 mmHg 81%
    19:00 +27°C° 0 mm 3 m/S 751 mmHg 83%
    20:00 +26°C° 0 mm 4 m/S 752 mmHg 84%
    21:00 +26°C° 0 mm 4 m/S 753 mmHg 86%
    22:00 +25°C° 0 mm 4 m/S 752 mmHg 85%
    23:00 +25°C° 0 mm 4 m/S 752 mmHg 85%

    25 November, Samstag

    Zeit Temperatur Niederschläge Wind Luftdruck Luftfeuchtigkeit
    00:00 +23°C° 0 mm 4 m/S 752 mmHg 84%
    01:00 +23°C° 0 mm 4 m/S 752 mmHg 85%
    02:00 +24°C° 0 mm 3 m/S 752 mmHg 85%
    03:00 +22°C° 0 mm 3 m/S 751 mmHg 85%
    04:00 +22°C° 0 mm 3 m/S 751 mmHg 85%
    05:00 +22°C° 0 mm 3 m/S 752 mmHg 86%
    06:00 +22°C° 0 mm 3 m/S 752 mmHg 86%
    07:00 +23°C° 0 mm 4 m/S 753 mmHg 81%
    08:00 +26°C° 0 mm 4 m/S 753 mmHg 76%
    09:00 +27°C° 0 mm 5 m/S 753 mmHg 70%
    10:00 +28°C° 0 mm 5 m/S 753 mmHg 69%
    11:00 +29°C° 0 mm 5 m/S 752 mmHg 67%
    12:00 +30°C° 0 mm 5 m/S 752 mmHg 66%
    13:00 +30°C° 0 mm 5 m/S 751 mmHg 67%
    14:00 +30°C° 0 mm 5 m/S 750 mmHg 68%
    15:00 +30°C° 0 mm 5 m/S 750 mmHg 70%
    16:00 +29°C° 0 mm 4 m/S 750 mmHg 73%
    17:00 +28°C° 0 mm 3 m/S 751 mmHg 77%
    18:00 +27°C° 0 mm 3 m/S 751 mmHg 80%
    19:00 +26°C° 0 mm 3 m/S 752 mmHg 80%
    20:00 +26°C° 0 mm 3 m/S 752 mmHg 80%
    21:00 +26°C° 0 mm 4 m/S 753 mmHg 79%
    22:00 +25°C° 0 mm 4 m/S 753 mmHg 79%
    23:00 +25°C° 0 mm 4 m/S 752 mmHg 79%

    26 November, Sonntag

    Zeit Temperatur Niederschläge Wind Luftdruck Luftfeuchtigkeit
    00:00 +23°C° 0 mm 4 m/S 752 mmHg 79%
    01:00 +23°C° 0 mm 4 m/S 752 mmHg 79%
    02:00 +23°C° 0 mm 4 m/S 752 mmHg 80%
    03:00 +23°C° 0 mm 4 m/S 751 mmHg 81%
    04:00 +22°C° 0 mm 4 m/S 752 mmHg 81%
    05:00 +22°C° 0 mm 4 m/S 752 mmHg 81%
    06:00 +22°C° 0 mm 4 m/S 753 mmHg 82%
    07:00 +25°C° 0 mm 5 m/S 753 mmHg 79%
    08:00 +26°C° 0 mm 6 m/S 753 mmHg 76%
    09:00 +28°C° 0 mm 6 m/S 754 mmHg 73%
    10:00 +29°C° 0 mm 6 m/S 753 mmHg 72%
    11:00 +29°C° 0 mm 6 m/S 752 mmHg 71%
    12:00 +30°C° 0 mm 6 m/S 751 mmHg 69%
    13:00 +30°C° 0,1 mm 6 m/S 751 mmHg 70%
    14:00 +30°C° 0,1 mm 6 m/S 750 mmHg 71%
    15:00 +30°C° 0,1 mm 5 m/S 750 mmHg 72%
    16:00 +29°C° 0,2 mm 5 m/S 750 mmHg 75%
    17:00 +28°C° 0,2 mm 5 m/S 751 mmHg 78%
    18:00 +27°C° 0,2 mm 5 m/S 751 mmHg 81%
    19:00 +26°C° 0,1 mm 5 m/S 752 mmHg 81%
    20:00 +26°C° 0,1 mm 5 m/S 752 mmHg 81%
    21:00 +26°C° 0,1 mm 6 m/S 753 mmHg 81%
    22:00 +25°C° 0 mm 5 m/S 752 mmHg 82%
    23:00 +25°C° 0 mm 5 m/S 752 mmHg 82%

    27 November, Montag

    Zeit Temperatur Niederschläge Wind Luftdruck Luftfeuchtigkeit
    00:00 +23°C° 0 mm 5 m/S 752 mmHg 82%
    01:00 +23°C° 0 mm 5 m/S 752 mmHg 83%
    02:00 +23°C° 0 mm 5 m/S 751 mmHg 84%
    03:00 +22°C° 0 mm 5 m/S 751 mmHg 84%
    04:00 +22°C° 0 mm 5 m/S 752 mmHg 85%
    05:00 +22°C° 0 mm 5 m/S 752 mmHg 85%
    06:00 +22°C° 0 mm 4 m/S 752 mmHg 86%
    07:00 +23°C° 0 mm 5 m/S 753 mmHg 82%
    08:00 +25°C° 0 mm 5 m/S 753 mmHg 78%
    09:00 +27°C° 0 mm 6 m/S 753 mmHg 74%
    10:00 +27°C° 0 mm 6 m/S 753 mmHg 71%
    11:00 +28°C° 0 mm 6 m/S 752 mmHg 67%
    12:00 +29°C° 0 mm 7 m/S 751 mmHg 64%
    13:00 +30°C° 0 mm 6 m/S 751 mmHg 65%
    14:00 +30°C° 0 mm 6 m/S 750 mmHg 66%
    15:00 +30°C° 0 mm 5 m/S 749 mmHg 66%
    16:00 +29°C° 0 mm 5 m/S 750 mmHg 69%
    17:00 +28°C° 0 mm 4 m/S 750 mmHg 72%
    18:00 +27°C° 0 mm 4 m/S 751 mmHg 74%
    19:00 +27°C° 0 mm 4 m/S 751 mmHg 73%
    20:00 +26°C° 0 mm 5 m/S 752 mmHg 72%
    21:00 +26°C° 0 mm 6 m/S 752 mmHg 72%
    22:00 +26°C° 0 mm 6 m/S 752 mmHg 73%
    23:00 +24°C° 0 mm 6 m/S 752 mmHg 75%
    Mehr zeigen